Location: Ferintosh
(52.7647°N, 112.9692°W)
Time: 14:35:22
(UTC+00:00)

Transit 2A Rocket - Pass Details

Date: 27 May 2024
Orbit: 583 x 910 km, 66.7° (Epoch: 14 June)

Event Time Altitude Azimuth Distance (km) Brightness Sun altitude
Rises 11:33:50 0° 237° (WSW) 3,057 7.4 1.1°
Reaches altitude 10° 11:36:08 10° 243° (WSW) 2,192 6.7 1.4°
Maximum altitude 11:41:01 51° 319° (NW) 964 5.6 2.0°
Drops below altitude 10° 11:46:26 10° 36° (NE) 2,419 9.1 2.7°
Sets 11:49:04 0° 41° (NE) 3,404 10.2 3.0°
